Volver al catálogo

COSMOS 1823 DEB

ActivoLEO
NORAD 39817·DEBRIS·🇷🇺 Russia

Lanzado Feb 20, 1987 desde Plesetsk Cosmodrome

Loading…

Próximos Pases (próximas 24 horas)

TLE

EnvejeciendoSource: Space-Track

Época: Sep 8, 2026, 08:14 UTC

1 39817U 87020ER  26251.34308080  .00000154  00000-0  10926-2 0  9997
2 39817  73.7156 123.4016 0021395  50.5655  69.5590 12.52173743 15681

Sigue COSMOS 1823 DEB en tiempo real con AllMySat

Download on the App Store